Simultaneous Nadir Overpasses (SNOs) Predictions

Prediction of SNOs between GOES-17 and TERRA Satellite Orbit:

Table of predicted SNOs for the next 14.0 days since TLE Epoch: 2/25/2022
Index Date Time (GOES-17) GOES-17 Lat,Lon TERRA Lat,Lon Distance(km) Time Diff (sec)
1 02/26/2022 19:17:06 0.03,-137.21 -0.63,-134.11 352.43 80
2 02/27/2022 07:41:10 -0.03,-137.20 -0.45,-139.31 239.14 80
3 03/01/2022 07:26:16 -0.03,-137.20 0.16,-136.35 96.40 80
4 03/01/2022 19:47:30 0.03,-137.20 0.93,-141.51 489.32 80
5 03/03/2022 07:14:02 -0.03,-137.19 0.78,-133.40 431.82 80
6 03/03/2022 19:35:16 0.03,-137.20 0.31,-138.56 153.91 80
7 03/05/2022 19:25:43 0.03,-137.19 -0.32,-135.60 181.33 80
8 03/06/2022 07:47:05 -0.03,-137.18 -0.81,-140.79 410.43 80
9 03/08/2022 07:34:51 -0.03,-137.17 -0.18,-137.84 75.98 80
10 03/10/2022 07:22:37 -0.02,-137.15 0.46,-134.88 257.71 80
11 03/10/2022 19:41:12 0.02,-137.15 0.63,-140.04 328.69 80
